Yuma MCAS, AZ

5:33 PM MST on June 25, 2017 (GMT -0700)
Yuma Marine Corps Air Station

Weather History for KNYL - July, 2013

Change the Weather History Date:

Monday, July 8, 2013

  Actual Average Record
Temperature  
Mean Temperature 97 °F 94 °F  
Max Temperature 111 °F 107 °F 118 °F (1958)
Min Temperature 83 °F 81 °F 64 °F (1909)
Degree Days  
Heating Degree Days 0 0  
Month to date heating degree days 0 0  
Since 1 June heating degree days 0 0  
Since 1 July heating degree days 0 0  
Cooling Degree Days 32 29  
Month to date cooling degree days 260 228  
Year to date cooling degree days 2126 1861  
Since 1 June cooling degree days 1065 949  
Growing Degree Days 46 (Base 50)    
Moisture  
Dew Point 58 °F    
Average Humidity 31    
Maximum Humidity 47    
Minimum Humidity 15    
Precipitation  
Precipitation 0.00 in 0.01 in 0.05 in (1950)
Month to date precipitation T 0.03  
Year to date precipitation 1.11 1.36  
Sea Level Pressure  
Sea Level Pressure 29.74 in    
Wind  
Wind Speed 9 mph (South)    
Max Wind Speed 18 mph    
Max Gust Speed 21 mph    
Visibility 10 miles    
Events      
T = Trace of Precipitation, MM = Missing Value Source: NWS Daily Summary

Daily Weather History Graph

Daily Weather History Graph

Search for Another Location

Airport or City:

Trip Planner

Search our weather history database for the weather conditions in past years. The results will help you decide how hot, cold, wet, or windy it might be!

Date:

Astronomy

Jul. 08, 2013 Rise Set
Actual Time 5:37 AM MST 7:49 PM MST
Civil Twilight 5:09 AM MST 8:17 PM MST
Nautical Twilight 4:35 AM MST 8:51 PM MST
Astronomical Twilight 3:57 AM MST 9:28 PM MST
Moon 6:05 AM MST (7/8) 8:00 PM MST (7/8)
Length of Visible Light 15h 07m
Length of Day
14h 11m
New Moon, 0% of the Moon is Illuminated
Jul 8
New Moon
Jul 15
First Quarter
Jul 22
Full
Jul 29
Last Quarter
Aug 6
New

Hourly Weather History & Observations

Time (MST) Temp. Heat Index Dew Point Humidity Pressure Visibility Wind Dir Wind Speed Gust Speed Precip Events Conditions
12:57 AM 91.9 °F 90.8 °F 57.9 °F 32% 29.67 in 10.0 mi WSW 5.8 mph - N/A   Scattered Clouds
1:57 AM 90.0 °F 88.8 °F 57.9 °F 34% 29.68 in 10.0 mi SSE 10.4 mph - N/A   Scattered Clouds
2:57 AM 91.0 °F - 52.0 °F 26% 29.68 in 10.0 mi WSW 3.5 mph - N/A   Scattered Clouds
3:57 AM 89.1 °F 86.9 °F 54.0 °F 30% 29.69 in 10.0 mi SSW 3.5 mph - N/A   Mostly Cloudy
4:57 AM 88.0 °F 85.7 °F 53.1 °F 30% 29.70 in 10.0 mi South 5.8 mph - N/A   Mostly Cloudy
5:57 AM 86.0 °F 84.5 °F 55.0 °F 35% 29.73 in 10.0 mi South 8.1 mph - N/A   Mostly Cloudy
6:57 AM 82.9 °F 83.3 °F 61.0 °F 47% 29.76 in 10.0 mi South 12.7 mph - N/A   Mostly Cloudy
7:57 AM 89.1 °F 90.3 °F 64.0 °F 43% 29.79 in 10.0 mi South 15.0 mph - N/A   Scattered Clouds
8:57 AM 93.0 °F 95.9 °F 66.0 °F 41% 29.80 in 10.0 mi South 11.5 mph - N/A   Scattered Clouds
9:57 AM 99.0 °F - 51.1 °F 20% 29.81 in 10.0 mi SW 5.8 mph - N/A   Scattered Clouds
10:57 AM 100.0 °F 98.8 °F 55.9 °F 23% 29.81 in 10.0 mi South 6.9 mph - N/A   Scattered Clouds
11:57 AM 102.0 °F 100.1 °F 54.0 °F 20% 29.79 in 10.0 mi South 8.1 mph - N/A   Scattered Clouds
12:57 PM 106.0 °F 105.8 °F 57.0 °F 20% 29.78 in 10.0 mi SSE 9.2 mph - N/A   Scattered Clouds
1:57 PM 107.1 °F 106.7 °F 55.9 °F 19% 29.76 in 10.0 mi South 12.7 mph - N/A   Scattered Clouds
2:57 PM 109.0 °F 107.4 °F 53.1 °F 16% 29.75 in 10.0 mi South 9.2 mph - N/A   Scattered Clouds
3:57 PM 109.9 °F 109.4 °F 55.9 °F 17% 29.72 in 10.0 mi South 9.2 mph - N/A   Scattered Clouds
4:57 PM 109.9 °F - 52.0 °F 15% 29.70 in 10.0 mi South 11.5 mph - N/A   Scattered Clouds
5:57 PM 109.9 °F 108.6 °F 55.0 °F 16% 29.69 in 10.0 mi South 10.4 mph - N/A   Mostly Cloudy
6:57 PM 102.9 °F 106.8 °F 64.9 °F 29% 29.71 in 10.0 mi South 16.1 mph - N/A   Mostly Cloudy
7:57 PM 98.1 °F 99.6 °F 63.0 °F 31% 29.72 in 10.0 mi South 11.5 mph - N/A   Scattered Clouds
8:57 PM 96.1 °F 95.6 °F 59.0 °F 29% 29.75 in 10.0 mi South 15.0 mph - N/A   Scattered Clouds
9:57 PM 93.0 °F 92.7 °F 60.1 °F 33% 29.77 in 10.0 mi South 10.4 mph - N/A   Scattered Clouds
10:57 PM 91.0 °F 91.5 °F 62.1 °F 38% 29.79 in 10.0 mi SSW 6.9 mph - N/A   Scattered Clouds
11:57 PM 89.1 °F 91.0 °F 64.9 °F 45% 29.82 in 10.0 mi South 8.1 mph - N/A   Scattered Clouds